Regional Weather Roundup
Issued by NWS

Home | Current Version | Previous Version | Graphics & Text | Print | Product List | Glossary On
Versions: 1 2 3 4 5 6 7 8 9 10 11 12 13 14 15 16 17 18 19 20 21 22 23 24 25 26 27 28 29 30 31 32 33 34 35 36 37 38 39 40 41 42 43 44 45 46 47 48 49 50
000
ASUS45 KBOU 071707
RWRCO

WEATHER ROUNDUP FOR COLORADO
NATIONAL WEATHER SERVICE DENVER/BOULDER CO
1000 AM MST WED DEC 07 2016

NOTE: "FAIR" INDICATES FEW OR NO CLOUDS BELOW 12000 FEET WITH NO
SIGNIFICANT WEATHER AND/OR OBSTRUCTIONS TO VISIBILITY.

COZ001>005-013-030-031-071800-
...NORTHWEST COLORADO...

CITY           SKY/WX    TMP DP  RH WIND       PRES   REMARKS
CRAIG          FAIR      14   7  73 N5        30.12R WCI   6
HAYDEN         CLOUDY    10   5  79 W3        30.08R
MEEKER         LGT SNOW  16  11  80 NW5       30.10R WCI   9
MOUNT WERNER   NOT AVBL
STEAMBOAT SPGS CLOUDY    12   7  81 S5        30.05R WCI   4
WALDEN           N/A      3  -2  78 CALM      29.97R
$$

COZ006>008-011-071800-
...WEST CENTRAL VALLEYS...

CITY           SKY/WX    TMP DP  RH WIND       PRES   REMARKS
GRAND JUNCTION FAIR      24  20  84 E6        30.15R WCI  17
MONTROSE       FAIR      22  15  75 SE5       30.15R WCI  16
EAGLE          PTSUNNY   23   9  54 CALM      30.08R
RIFLE          FAIR      21  13  71 W5        30.13R WCI  15
DELTA          FAIR      29  20  70 S5        30.14  WCI  24
NUCLA          FAIR      27  18  69 CALM      30.15R
$$

COZ017>023-064>068-071800-
...SOUTHWEST COLORADO...

CITY           SKY/WX    TMP DP  RH WIND       PRES   REMARKS
DURANGO        FAIR      29   5  36 SW17      30.02R WCI  17
CORTEZ         FAIR      28   9  44 N8        30.10R WCI  20
PAGOSA SPRINGS FAIR      27   8  45 SW9       30.00R WCI  17
TELLURIDE      FAIR      14   6  69 CALM      30.01R
WOLF CREEK PAS CLOUDY     7   5  92 SW14G23   29.90R WCI -10
$$

COZ009-010-012-014-032>034-037-058>063-071800-
...CENTRAL COLORADO...

CITY           SKY/WX    TMP DP  RH WIND       PRES   REMARKS
ASPEN          PTSUNNY   14   8  77 CALM      29.99R
BUENA VISTA    CLOUDY    20  -4  34 NW6G12    29.96R WCI  12
COPPER MTN     NOT AVBL
BERTHOUD PASS  CLOUDY    -9 -22  54 NW18      29.71R HAZE    WCI -33
COTTONWOOD PAS FAIR      14  -6  41 W3        29.89R
GUNNISON       FLURRIES  19   2  47 SW14      30.01R WCI   6
KREMMLING      CLOUDY    16   7  67 CALM      30.03R
LEADVILLE      FAIR       5 -10  50 W14       29.87R WCI -12
MONARCH PASS   CLOUDY     0  -4  85 W18G35    29.91R FOG     WCI -22
SALIDA         FAIR      20   8  59 E7        30.06R WCI  11
SUNLIGHT       LGT SNOW   1  -4  78 SW9       29.93R WCI -14
WILKERSON PASS FAIR       3  -4  72 W5        29.84R WCI  -6
$$

COZ069>075-071800-
...SAN LUIS VALLEY/SANGRE DE CRISTO MOUNTAINS...

CITY           SKY/WX    TMP DP  RH WIND       PRES   REMARKS
ALAMOSA        CLOUDY    23   5  46 N12G22    29.98R WCI  12
LA VETA PASS   CLOUDY    10   3  72 E5        29.88R WCI   2
SAGUACHE       FAIR      23   0  36 NW18G25   29.99R WCI   9
$$

COZ035-036-038>040-071800-
...NORTHERN COLORADO FRONT RANGE...

CITY           SKY/WX    TMP DP  RH WIND       PRES   REMARKS
DENVER INTL AP LGT SNOW   8   2  76 N10       30.18R WCI  -6
DMNS CITY PARK   N/A      9   4  80 E8        30.19R WCI  -3
AURORA         LGT SNOW   8   4  82 N9        30.17R WCI  -6
FRONT RANGE AP LGT SNOW  10   7  85 N10       30.17R WCI  -3
ERIE MUNI ARPT CLOUDY    10   3  75 NE8       30.21R WCI  -3
BOULDER MUN AP LGT SNOW  12   9  85 NE7       30.19R WCI   2
CENTENNIAL     LGT SNOW   7   3  84 N9        30.14R FOG     WCI  -7
BROOMFIELD     LGT SNOW  10   5  79 N10       30.17R WCI  -3
FORT COLLINS   CLOUDY     9   1  72 NE5       30.22R WCI   0
LONGMONT       CLOUDY    15   6  67 E6        30.24R WCI   6
$$

COZ041-046-047-076>085-087-088-071800-
...PIKES PEAK/PALMER DIVIDE AND SOUTHERN FOOTHILLS...

CITY           SKY/WX    TMP DP  RH WIND       PRES   REMARKS
COLO. SPRINGS  FAIR      20   6  55 N9        30.08R WCI   9
A. F. ACADEMY  FAIR      15   5  63 N13       30.05R WCI   1
SCHRIEVER AFB  NOT AVBL
ELLICOTT       MIX PCPN N/A N/A N/A E9          N/A
FALCON         CLOUDY    15   5  64 N10       30.05R WCI   3
FORT CARSON    FAIR      17   9  71 E2        30.09R
LIMON          LGT SNOW  14  10  84 NE8       30.14R FOG     WCI   3
MONUMENT HILL  LGT SNOW   9   5  85 NW14      30.06R WCI  -8
TRINIDAD       LGT SNOW  19   9  65 N12       30.11R WCI   7
$$

COZ042>045-048>051-090-091-071800-
...NORTHEAST COLORADO...

CITY           SKY/WX    TMP DP  RH WIND       PRES   REMARKS
GREELEY ARPT   CLOUDY     9   2  73 NE10      30.26R WCI  -5
AKRON          LGT SNOW  10   4  76 N14       30.22R WCI  -6
BURLINGTON     LGT SNOW  14   6  70 NE15      30.21R WCI  -1
WRAY           NOT AVBL
STERLING       LGT SNOW  12   7  79 N13       30.26S WCI  -3
HOLYOKE        CLOUDY    19  10  68 N10       30.29R WCI   8
FORT MORGAN    CLOUDY    11   3  71 N13       30.24R WCI  -4
$$

COZ086-089-092>099-071800-
...SOUTHEAST COLORADO...

CITY           SKY/WX    TMP DP  RH WIND       PRES   REMARKS
PUEBLO         CLOUDY    22  11  62 E5        30.16R WCI  16
LA JUNTA       CLOUDY    22  15  75 NE15      30.18R WCI   9
LAMAR          LGT SNOW  19  13  77 NE15G24   30.19R WCI   5
SPRINGFIELD      N/A     22   9  57 N18G29    30.11R WCI   7
$$



USA.gov is the U.S. government's official web portal to all federal, state and local government web resources and services.